Weather History for Detroit Metro, MI

Change the Weather History Date:

Tuesday, May 28, 2013

  Actual Average Record
Temperature  
Mean Temperature 67 °F 64 °F  
Max Temperature 81 °F 74 °F 95 °F (2012)
Min Temperature 52 °F 53 °F 35 °F (1907)
Degree Days  
Heating Degree Days 0 4  
Month to date heating degree days 137 198  
Since 1 July heating degree days 5906 6092  
Cooling Degree Days 2 2  
Month to date cooling degree days 68 32  
Year to date cooling degree days 68 38  
Growing Degree Days 16 (Base 50)    
Moisture  
Dew Point 59 °F    
Average Humidity 82    
Maximum Humidity 96    
Minimum Humidity 67    
Precipitation  
Precipitation 0.29 in 0.11 in 2.02 in (1935)
Month to date precipitation 1.55 3.04  
Year to date precipitation 13.86 12.20  
Snow  
Snow 0.00 in 0.00 in 0.00 in ()
Month to date snowfall 0.0 0.0  
Since 1 July snowfall 47.7 42.5  
Snow Depth 0.00 in    
Sea Level Pressure  
Sea Level Pressure 29.92 in    
Wind  
Wind Speed 8 mph (SE)    
Max Wind Speed 30 mph    
Max Gust Speed 40 mph    
Visibility 5 miles    
Events Rain , Thunderstorm    
T = Trace of Precipitation, MM = Missing Value Source: NWS Daily Summary

Daily Weather History Graph

Daily Weather History Graph

Search for Another Location

Airport:

Trip Planner

Search our weather history database for the weather conditions in past years. The results will help you decide how hot, cold, wet, or windy it might be!

Date:

Astronomy

May. 28, 2013 Rise Set
Actual Time 6:01 AM EDT 9:00 PM EDT
Civil Twilight 5:28 AM EDT 9:33 PM EDT
Nautical Twilight 4:45 AM EDT 10:16 PM EDT
Astronomical Twilight 3:55 AM EDT 11:06 PM EDT
Moon No Moon Rise 9:50 AM EDT (5/28)
Length of Visible Light 16h 05m
Length of Day
14h 58m
Waning Gibbous, 83% of the Moon is Illuminated
May 28
Waning Gibbous
May 31
Last Quarter
Jun 8
New
Jun 16
First Quarter
Jun 23
Full

Hourly Weather History & Observations

Time (EDT) Temp. Dew Point Humidity Pressure Visibility Wind Dir Wind Speed Gust Speed Precip Events Conditions
12:53 AM 52.0 °F 50.0 °F 93% 30.01 in 7.0 mi ENE 5.8 mph - N/A   Overcast
1:50 AM 51.8 °F 50.0 °F 94% 29.98 in 6.0 mi ENE 6.9 mph - 0.00 in   Overcast
1:53 AM 52.0 °F 50.0 °F 93% 29.98 in 6.0 mi NE 6.9 mph - 0.00 in   Overcast
2:32 AM 53.6 °F 51.8 °F 94% 29.97 in 3.0 mi NE 4.6 mph - 0.00 in Rain Light Rain
2:53 AM 53.1 °F 51.1 °F 93% 29.98 in 4.0 mi NE 4.6 mph - 0.01 in Rain Light Rain
3:42 AM 53.6 °F 51.8 °F 94% 29.95 in 2.5 mi ENE 8.1 mph - 0.00 in Rain Light Rain
3:53 AM 53.1 °F 51.1 °F 93% 29.95 in 2.5 mi NE 5.8 mph - 0.05 in Rain Light Rain
4:50 AM 53.6 °F 51.8 °F 94% 29.94 in 3.0 mi NE 3.5 mph - 0.00 in Rain Light Rain
4:53 AM 54.0 °F 52.0 °F 93% 29.95 in 3.0 mi NE 4.6 mph - 0.00 in Rain Light Rain
5:44 AM 53.6 °F 51.8 °F 94% 29.95 in 2.5 mi Calm Calm - 0.00 in   Overcast
5:53 AM 54.0 °F 52.0 °F 93% 29.96 in 2.5 mi Calm Calm - 0.00 in   Overcast
6:08 AM 53.6 °F 51.8 °F 94% 29.96 in 1.5 mi Calm Calm - N/A   Overcast
6:53 AM 55.0 °F 52.0 °F 89% 29.97 in 1.5 mi Calm Calm - N/A   Overcast
7:07 AM 55.4 °F 51.8 °F 88% 29.97 in 2.0 mi NNE 3.5 mph - N/A   Overcast
7:37 AM 55.4 °F 53.6 °F 94% 29.96 in 2.0 mi Calm Calm - 0.00 in Rain Light Rain
7:43 AM 55.4 °F 53.6 °F 94% 29.97 in 1.5 mi SE 3.5 mph - 0.00 in Rain Light Rain
7:50 AM 55.4 °F 53.6 °F 94% 29.97 in 1.5 mi Calm Calm - 0.00 in Rain Light Rain
7:53 AM 55.0 °F 53.1 °F 93% 29.98 in 1.5 mi Calm Calm - 0.00 in Rain Light Rain
8:53 AM 55.9 °F 53.1 °F 90% 29.96 in 1.5 mi Calm Calm - 0.04 in Rain Light Rain
9:15 AM 55.4 °F 53.6 °F 94% 29.96 in 1.5 mi ENE 3.5 mph - 0.02 in Rain Light Rain
9:31 AM 55.4 °F 53.6 °F 94% 29.96 in 1.5 mi Calm Calm - 0.02 in Rain Light Rain
9:53 AM 57.0 °F 55.0 °F 93% 29.95 in 1.5 mi East 4.6 mph - 0.02 in   Overcast
10:25 AM 59.0 °F 57.2 °F 94% 29.95 in 1.5 mi SE 6.9 mph - 0.02 in Rain Light Rain
10:27 AM 59.0 °F 57.2 °F 94% 29.95 in 3.0 mi SE 5.8 mph - 0.02 in Rain Light Rain
10:53 AM 60.1 °F 57.9 °F 93% 29.95 in 3.0 mi SE 4.6 mph - 0.07 in Rain Light Rain
11:40 AM 64.4 °F 60.8 °F 88% 29.95 in 3.0 mi East 3.5 mph - 0.00 in   Overcast
11:53 AM 64.0 °F 61.0 °F 90% 29.94 in 3.0 mi East 3.5 mph - 0.00 in   Overcast
12:25 PM 66.2 °F 62.6 °F 88% 29.92 in 3.0 mi ESE 5.8 mph - N/A   Overcast
12:53 PM 70.0 °F 64.0 °F 81% 29.90 in 3.0 mi SE 10.4 mph - N/A   Overcast
1:33 PM 69.8 °F 62.6 °F 78% 29.90 in 3.0 mi SE 9.2 mph - N/A   Overcast
1:53 PM 70.0 °F 64.0 °F 81% 29.90 in 3.0 mi East 6.9 mph - N/A   Overcast
2:53 PM 72.0 °F 64.9 °F 78% 29.87 in 9.0 mi SSE 5.8 mph - 0.00 in Rain Light Rain
3:53 PM 75.0 °F 66.9 °F 76% 29.87 in 10.0 mi South 11.5 mph - 0.00 in   Overcast
4:53 PM 79.0 °F 66.0 °F 64% 29.85 in 10.0 mi SSW 23.0 mph 29.9 mph N/A   Overcast
5:53 PM 79.0 °F 66.9 °F 66% 29.85 in 10.0 mi SSW 18.4 mph - 0.01 in   Overcast
6:30 PM 75.2 °F 68.0 °F 78% 29.87 in 3.0 mi South 15.0 mph - 0.00 in Rain , Thunderstorm Light Thunderstorms and Rain
6:31 PM 75.2 °F 68.0 °F 78% 29.87 in 2.5 mi South 16.1 mph - 0.00 in Rain , Thunderstorm Light Thunderstorms and Rain
6:35 PM 75.2 °F 68.0 °F 78% 29.86 in 1.0 mi SSW 18.4 mph 25.3 mph 0.00 in Rain , Thunderstorm Heavy Thunderstorms and Rain
6:41 PM 73.4 °F 68.0 °F 83% 29.86 in 6.0 mi SSW 15.0 mph 26.5 mph 0.09 in Rain , Thunderstorm Light Thunderstorms and Rain
6:50 PM 73.4 °F 69.8 °F 88% 29.85 in 7.0 mi SSW 9.2 mph - 0.09 in   Overcast
6:53 PM 73.9 °F 69.1 °F 85% 29.85 in 7.0 mi SSW 8.1 mph - 0.09 in   Overcast
7:53 PM 73.9 °F 68.0 °F 82% 29.85 in 10.0 mi South 8.1 mph - 0.00 in   Mostly Cloudy
8:53 PM 73.9 °F 68.0 °F 82% 29.84 in 10.0 mi South 9.2 mph - N/A   Mostly Cloudy
9:53 PM 73.9 °F 66.0 °F 76% 29.83 in 10.0 mi South 16.1 mph - N/A   Mostly Cloudy
10:53 PM 75.0 °F 64.9 °F 71% 29.85 in 10.0 mi South 12.7 mph - N/A   Mostly Cloudy
11:53 PM 75.0 °F 64.9 °F 71% 29.83 in 10.0 mi South 17.3 mph - N/A   Overcast